Location: Bottenau
(48.5138°N, 8.0462°E)
Time: 17:17:49
(UTC+00:00)

Cosmos 2219 Rocket - Pass Details

Date: 18 April 2021
Orbit: 826 x 848 km, 71.0° (Epoch: 06 May)

Event Time Altitude Azimuth Distance (km) Brightness Sun altitude
Rises 20:51:19 0° 320° (NW) 3,421 6.9 -21.2°
Reaches altitude 10° 20:54:30 10° 302° (WNW) 2,480 5.7 -21.5°
Maximum altitude 20:58:14 18° 261° (W) 1,951 4.4 -21.9°
Drops below altitude 10° 21:01:58 10° 219° (SW) 2,465 4.5 -22.3°
Enters shadow 21:03:00 - 212° (SSW) 2,740 4.7 -22.4°
